KSDF Airport Diagram

We have created a template for each of the higher traffic airports in the vZID airspace. They include KCMH, KCRW, KCVG, KDAY, KIND, KLEX and KSDF. You wil find usefull information including the airport diagram, weather, and specific airport procedures.

KSDF Weather

[Source: ADDS]
METAR
KSDF 261556Z 14006KT 10SM SCT042 SCT065 28/20 A3012 RMK AO2 SLP194 T02830200 =
TAF
KSDF 261120Z 2612/2718 12004KT P6SM FEW110 FEW200 FM262200 19004KT P6SM FEW050 SCT200 =

SDF Operations

Calm Wind Configuration is runways 17L and 17R

Runway 17L typically departs north and east

Runway 17R typicall departs south and west

 

JSN Epic template designed by JoomlaShine.com